Location: Asheville, NC
(35.6000°N, 82.5500°W)
Time: 22:45:03
(UTC-05:00)

CUTE 1.7 + AOD 2 - Pass Details

Date: 12 January 2018
Orbit: 595 x 613 km, 97.6° (Epoch: 17 January)

Event Time Altitude Azimuth Distance (km) Brightness Sun altitude
Rises 18:45:28 0° 169° (SSE) 2,860 ? -13.6°
Reaches altitude 10° 18:47:38 10° 170° (S) 1,959 ? -14.1°
Maximum altitude 18:51:54 83° 259° (W) 619 ? -14.9°
Drops below altitude 10° 18:56:12 10° 347° (NNW) 1,968 ? -15.7°
Sets 18:58:23 0° 348° (NNW) 2,873 ? -16.2°
